Time,TemperatureF,DewpointF,PressureIn,WindDirection,WindDirectionDegrees,WindSpeedMPH,WindSpeedGustMPH,Humidity,HourlyPrecipIn,Conditions,Clouds,dailyrainin,SolarRadiationWatts/m^2,SoftwareType,DateUTC
2013-02-14 00:05:00,42.4,42.4,30.26,SW,229,0.0,1.0,100,0.00,,,0.00,0001,Weather View 32 v70,2013-02-14 08:05:00,
2013-02-14 00:10:00,42.6,42.6,30.26,South,184,0.0,1.0,100,0.00,,,0.00,0002,Weather View 32 v70,2013-02-14 08:10:00,
2013-02-14 00:15:00,42.4,42.4,30.26,SSE,162,0.0,1.0,100,0.00,,,0.00,0001,Weather View 32 v70,2013-02-14 08:15:00,
2013-02-14 00:20:00,42.2,42.2,30.26,SSE,162,0.0,1.0,100,0.00,,,0.00,0001,Weather View 32 v70,2013-02-14 08:20:00,
2013-02-14 00:30:00,41.6,41.6,30.26,South,184,0.0,0.0,100,0.00,,,0.00,0001,Weather View 32 v70,2013-02-14 08:30:00,
2013-02-14 00:35:00,41.5,41.5,30.26,South,184,0.0,0.0,100,0.00,,,0.00,0001,Weather View 32 v70,2013-02-14 08:35:00,
2013-02-14 00:40:00,41.4,41.4,30.26,South,184,0.0,0.0,100,0.00,,,0.00,0001,Weather View 32 v70,2013-02-14 08:40:00,
2013-02-14 00:45:00,41.6,41.6,30.26,West,274,0.0,0.0,100,0.00,,,0.00,0001,Weather View 32 v70,2013-02-14 08:45:00,
2013-02-14 00:55:00,41.6,41.6,30.26,SW,229,0.0,0.0,100,0.00,,,0.00,0002,Weather View 32 v70,2013-02-14 08:55:00,
2013-02-14 01:00:00,41.5,41.5,30.26,SSW,207,0.0,0.0,100,0.00,,,0.00,0002,Weather View 32 v70,2013-02-14 09:00:00,
2013-02-14 01:05:00,41.3,41.3,30.26,SSW,207,0.0,0.0,100,0.00,,,0.00,0002,Weather View 32 v70,2013-02-14 09:05:00,
2013-02-14 01:10:00,41.0,41.0,30.26,SSW,207,0.0,0.0,100,0.00,,,0.00,0001,Weather View 32 v70,2013-02-14 09:10:00,
2013-02-14 01:15:00,40.9,40.9,30.26,SSW,207,0.0,0.0,100,0.00,,,0.00,0001,Weather View 32 v70,2013-02-14 09:15:00,
2013-02-14 01:25:00,40.8,40.8,30.26,SSW,207,0.0,0.0,100,0.00,,,0.00,0001,Weather View 32 v70,2013-02-14 09:25:00,
2013-02-14 01:30:00,40.8,40.8,30.27,SSW,207,0.0,0.0,100,0.00,,,0.00,0001,Weather View 32 v70,2013-02-14 09:30:00,
2013-02-14 01:35:00,40.7,40.7,30.27,SSW,207,0.0,0.0,100,0.00,,,0.00,0001,Weather View 32 v70,2013-02-14 09:35:00,
2013-02-14 01:40:00,40.8,40.8,30.27,SSW,207,0.0,0.0,100,0.00,,,0.00,0001,Weather View 32 v70,2013-02-14 09:40:00,
2013-02-14 01:50:00,40.7,40.7,30.27,WSW,252,0.0,0.0,100,0.00,,,0.00,0002,Weather View 32 v70,2013-02-14 09:50:00,
2013-02-14 01:55:00,40.6,40.6,30.27,SSW,207,0.0,0.0,100,0.00,,,0.00,0001,Weather View 32 v70,2013-02-14 09:55:00,
2013-02-14 02:00:00,40.4,40.4,30.27,SSW,207,0.0,0.0,100,0.00,,,0.00,0002,Weather View 32 v70,2013-02-14 10:00:00,
2013-02-14 02:05:00,40.5,40.5,30.27,West,274,0.0,0.0,100,0.00,,,0.00,0002,Weather View 32 v70,2013-02-14 10:05:00,
2013-02-14 02:10:00,40.6,40.6,30.27,South,184,0.0,0.0,100,0.00,,,0.00,0001,Weather View 32 v70,2013-02-14 10:10:00,
2013-02-14 02:20:00,40.5,40.5,30.27,South,184,0.0,0.0,100,0.00,,,0.00,0001,Weather View 32 v70,2013-02-14 10:20:00,
2013-02-14 02:25:00,40.4,40.4,30.27,SE,139,0.0,0.0,100,0.00,,,0.00,0002,Weather View 32 v70,2013-02-14 10:25:00,
2013-02-14 02:30:00,40.2,40.2,30.27,SE,139,0.0,0.0,100,0.00,,,0.00,0001,Weather View 32 v70,2013-02-14 10:30:00,
2013-02-14 02:35:00,40.0,40.0,30.27,SE,139,0.0,0.0,100,0.00,,,0.00,0001,Weather View 32 v70,2013-02-14 10:35:00,
2013-02-14 02:40:00,39.9,39.9,30.27,SSW,207,0.0,0.0,100,0.00,,,0.00,0001,Weather View 32 v70,2013-02-14 10:40:00,
2013-02-14 02:45:00,39.9,39.9,30.27,SSE,162,0.0,0.0,100,0.00,,,0.00,0001,Weather View 32 v70,2013-02-14 10:45:00,
2013-02-14 02:55:00,39.7,39.7,30.27,South,184,0.0,0.0,100,0.00,,,0.00,0001,Weather View 32 v70,2013-02-14 10:55:00,
2013-02-14 03:00:00,39.6,39.6,30.27,South,184,0.0,0.0,100,0.00,,,0.00,0002,Weather View 32 v70,2013-02-14 11:00:00,
2013-02-14 03:10:00,39.4,39.4,30.26,South,184,0.0,0.0,100,0.00,,,0.00,0001,Weather View 32 v70,2013-02-14 11:10:00,
2013-02-14 03:15:00,39.4,39.4,30.26,South,184,0.0,0.0,100,0.00,,,0.00,0001,Weather View 32 v70,2013-02-14 11:15:00,
2013-02-14 03:20:00,39.3,39.3,30.26,SSE,162,0.0,0.0,100,0.00,,,0.00,0001,Weather View 32 v70,2013-02-14 11:20:00,
2013-02-14 03:30:00,39.1,39.1,30.26,SSW,207,0.0,0.0,100,0.00,,,0.00,0001,Weather View 32 v70,2013-02-14 11:30:00,
2013-02-14 03:35:00,39.2,39.2,30.26,SSW,207,0.0,0.0,100,0.00,,,0.00,0001,Weather View 32 v70,2013-02-14 11:35:00,
2013-02-14 03:40:00,39.0,39.0,30.26,SSW,207,0.0,0.0,100,0.00,,,0.00,0001,Weather View 32 v70,2013-02-14 11:40:00,
2013-02-14 03:45:00,38.8,38.8,30.27,SE,139,0.0,0.0,100,0.00,,,0.00,0001,Weather View 32 v70,2013-02-14 11:45:00,
2013-02-14 03:50:00,38.7,38.7,30.26,SSW,207,0.0,0.0,100,0.00,,,0.00,0001,Weather View 32 v70,2013-02-14 11:50:00,
2013-02-14 04:00:00,38.8,38.8,30.27,South,184,0.0,0.0,100,0.00,,,0.00,0001,Weather View 32 v70,2013-02-14 12:00:00,
2013-02-14 04:05:00,38.9,38.9,30.27,WSW,252,0.0,0.0,100,0.00,,,0.00,0001,Weather View 32 v70,2013-02-14 12:05:00,
2013-02-14 04:10:00,38.5,38.5,30.27,South,184,0.0,0.0,100,0.00,,,0.00,0001,Weather View 32 v70,2013-02-14 12:10:00,
2013-02-14 04:15:00,38.4,38.4,30.27,SSE,162,0.0,0.0,100,0.00,,,0.00,0001,Weather View 32 v70,2013-02-14 12:15:00,
2013-02-14 04:20:00,38.6,38.6,30.27,East,94,0.0,0.0,100,0.00,,,0.00,0001,Weather View 32 v70,2013-02-14 12:20:00,
2013-02-14 04:30:00,38.5,38.5,30.27,NNW,342,0.0,0.0,100,0.00,,,0.00,0001,Weather View 32 v70,2013-02-14 12:30:00,
2013-02-14 04:35:00,38.5,38.5,30.27,SSW,207,0.0,0.0,100,0.00,,,0.00,0001,Weather View 32 v70,2013-02-14 12:35:00,
2013-02-14 04:40:00,38.5,38.5,30.27,South,184,0.0,0.0,100,0.00,,,0.00,0001,Weather View 32 v70,2013-02-14 12:40:00,
2013-02-14 04:45:00,38.6,38.6,30.26,SSW,207,0.0,0.0,100,0.00,,,0.00,0001,Weather View 32 v70,2013-02-14 12:45:00,
2013-02-14 04:55:00,38.1,38.1,30.26,NW,319,0.0,0.0,100,0.00,,,0.00,0001,Weather View 32 v70,2013-02-14 12:55:00,
2013-02-14 05:00:00,38.1,38.1,30.26,NNW,342,0.0,0.0,100,0.00,,,0.00,0001,Weather View 32 v70,2013-02-14 13:00:00,
2013-02-14 05:05:00,38.0,38.0,30.26,SW,229,0.0,0.0,100,0.00,,,0.00,0001,Weather View 32 v70,2013-02-14 13:05:00,
2013-02-14 05:10:00,38.0,38.0,30.26,SSW,207,0.0,0.0,100,0.00,,,0.00,0001,Weather View 32 v70,2013-02-14 13:10:00,
2013-02-14 05:15:00,38.0,38.0,30.26,South,184,0.0,0.0,100,0.00,,,0.00,0002,Weather View 32 v70,2013-02-14 13:15:00,
2013-02-14 05:24:00,38.0,38.0,30.26,WSW,252,0.0,0.0,100,0.00,,,0.00,0001,Weather View 32 v70,2013-02-14 13:24:00,
2013-02-14 05:30:00,38.2,38.2,30.26,North,4,0.0,0.0,100,0.00,,,0.00,0001,Weather View 32 v70,2013-02-14 13:30:00,
2013-02-14 05:35:00,38.1,38.1,30.26,SW,229,0.0,0.0,100,0.00,,,0.00,0001,Weather View 32 v70,2013-02-14 13:35:00,
2013-02-14 05:40:00,38.1,38.1,30.26,South,184,0.0,0.0,100,0.00,,,0.00,0002,Weather View 32 v70,2013-02-14 13:40:00,
2013-02-14 05:45:00,37.9,37.9,30.26,West,274,0.0,0.0,100,0.00,,,0.00,0002,Weather View 32 v70,2013-02-14 13:45:00,
2013-02-14 05:55:00,38.0,38.0,30.26,SSW,207,0.0,3.0,100,0.00,,,0.00,0001,Weather View 32 v70,2013-02-14 13:55:00,
2013-02-14 06:00:00,37.7,37.7,30.26,South,184,1.0,3.0,100,0.00,,,0.00,0002,Weather View 32 v70,2013-02-14 14:00:00,
2013-02-14 06:05:00,37.7,37.7,30.26,SE,139,0.0,3.0,100,0.00,,,0.00,0001,Weather View 32 v70,2013-02-14 14:05:00,
2013-02-14 06:10:00,37.8,37.8,30.26,East,94,0.0,4.0,100,0.00,,,0.00,0001,Weather View 32 v70,2013-02-14 14:10:00,
2013-02-14 06:20:00,37.7,37.7,30.27,NW,319,3.0,4.0,100,0.00,,,0.00,0001,Weather View 32 v70,2013-02-14 14:20:00,
2013-02-14 06:25:00,37.5,37.5,30.27,North,4,2.0,4.0,100,0.00,,,0.00,0002,Weather View 32 v70,2013-02-14 14:25:00,
2013-02-14 06:30:00,37.6,37.6,30.27,West,274,0.0,4.0,100,0.00,,,0.00,0001,Weather View 32 v70,2013-02-14 14:30:00,
2013-02-14 06:35:00,37.8,37.8,30.27,SW,229,0.0,4.0,100,0.00,,,0.00,0002,Weather View 32 v70,2013-02-14 14:35:00,
2013-02-14 06:45:00,37.5,37.5,30.27,WSW,252,0.0,4.0,100,0.00,,,0.00,0002,Weather View 32 v70,2013-02-14 14:45:00,
2013-02-14 06:50:00,37.7,37.7,30.28,West,274,0.0,4.0,100,0.00,,,0.00,0003,Weather View 32 v70,2013-02-14 14:50:00,
2013-02-14 06:55:00,37.7,37.7,30.28,SSW,207,0.0,4.0,100,0.00,,,0.00,0005,Weather View 32 v70,2013-02-14 14:55:00,
2013-02-14 07:00:00,38.0,38.0,30.28,ENE,72,0.0,4.0,100,0.00,,,0.00,0007,Weather View 32 v70,2013-02-14 15:00:00,
2013-02-14 07:10:00,39.0,39.0,30.28,NNW,342,0.0,4.0,100,0.00,,,0.00,0030,Weather View 32 v70,2013-02-14 15:10:00,
2013-02-14 07:15:00,39.3,39.3,30.28,SSE,162,0.0,4.0,100,0.00,,,0.00,0053,Weather View 32 v70,2013-02-14 15:15:00,
2013-02-14 07:20:00,39.5,39.5,30.28,WSW,252,1.0,4.0,100,0.00,,,0.00,0073,Weather View 32 v70,2013-02-14 15:20:00,
2013-02-14 07:25:00,39.9,39.9,30.28,SSW,207,1.0,4.0,100,0.00,,,0.00,0092,Weather View 32 v70,2013-02-14 15:25:00,
2013-02-14 07:35:00,42.9,42.9,30.28,SSW,207,0.0,4.0,100,0.00,,,0.00,0124,Weather View 32 v70,2013-02-14 15:35:00,
2013-02-14 07:40:00,43.8,43.8,30.28,South,184,1.0,4.0,100,0.00,,,0.00,0140,Weather View 32 v70,2013-02-14 15:40:00,
2013-02-14 07:45:00,45.4,45.4,30.28,South,184,3.0,4.0,100,0.00,,,0.00,0153,Weather View 32 v70,2013-02-14 15:45:00,
2013-02-14 07:50:00,47.0,47.0,30.28,South,184,2.0,4.0,100,0.00,,,0.00,0167,Weather View 32 v70,2013-02-14 15:50:00,
2013-02-14 08:00:00,50.8,50.8,30.28,NNE,27,3.0,6.0,100,0.00,,,0.00,0193,Weather View 32 v70,2013-02-14 16:00:00,
2013-02-14 08:05:00,52.0,52.0,30.28,WNW,297,2.0,6.0,100,0.00,,,0.00,0206,Weather View 32 v70,2013-02-14 16:05:00,
2013-02-14 08:10:00,53.2,53.2,30.28,South,184,2.0,6.0,100,0.00,,,0.00,0220,Weather View 32 v70,2013-02-14 16:10:00,
2013-02-14 08:15:00,54.6,54.6,30.29,SE,139,1.0,6.0,100,0.00,,,0.00,0232,Weather View 32 v70,2013-02-14 16:15:00,
2013-02-14 08:20:00,55.6,55.6,30.29,SE,139,0.0,6.0,100,0.00,,,0.00,0244,Weather View 32 v70,2013-02-14 16:20:00,
2013-02-14 08:25:00,56.4,55.6,30.29,SSE,162,1.0,6.0,97,0.00,,,0.00,0256,Weather View 32 v70,2013-02-14 16:25:00,
2013-02-14 08:35:00,56.8,52.6,30.29,South,184,4.0,6.0,86,0.00,,,0.00,0279,Weather View 32 v70,2013-02-14 16:35:00,
2013-02-14 08:40:00,57.0,51.5,30.29,South,184,5.0,6.0,82,0.00,,,0.00,0291,Weather View 32 v70,2013-02-14 16:40:00,
2013-02-14 08:45:00,57.6,51.8,30.29,SE,139,4.0,6.0,81,0.00,,,0.00,0302,Weather View 32 v70,2013-02-14 16:45:00,
2013-02-14 08:50:00,57.8,51.0,30.29,SSE,162,4.0,7.0,78,0.00,,,0.00,0313,Weather View 32 v70,2013-02-14 16:50:00,
2013-02-14 09:00:00,58.6,50.0,30.29,East,94,3.0,7.0,73,0.00,,,0.00,0335,Weather View 32 v70,2013-02-14 17:00:00,
2013-02-14 09:05:00,58.9,50.2,30.29,South,184,1.0,7.0,73,0.00,,,0.00,0345,Weather View 32 v70,2013-02-14 17:05:00,
2013-02-14 09:15:00,59.2,49.8,30.29,ESE,117,6.0,9.0,71,0.00,,,0.00,0365,Weather View 32 v70,2013-02-14 17:15:00,
2013-02-14 09:25:00,59.3,49.1,30.29,SE,139,4.0,11.0,69,0.00,,,0.00,0386,Weather View 32 v70,2013-02-14 17:25:00,
2013-02-14 09:30:00,59.7,49.1,30.29,SSE,162,3.0,11.0,68,0.00,,,0.00,0395,Weather View 32 v70,2013-02-14 17:30:00,
2013-02-14 09:35:00,59.7,49.1,30.29,SE,139,5.0,11.0,68,0.00,,,0.00,0405,Weather View 32 v70,2013-02-14 17:35:00,
2013-02-14 09:40:00,59.7,48.7,30.28,ESE,117,5.0,11.0,67,0.00,,,0.00,0415,Weather View 32 v70,2013-02-14 17:40:00,
2013-02-14 09:45:00,60.0,49.0,30.28,SSE,162,3.0,11.0,67,0.00,,,0.00,0425,Weather View 32 v70,2013-02-14 17:45:00,
2013-02-14 09:55:00,60.9,47.8,30.28,ESE,117,1.0,11.0,62,0.00,,,0.00,0444,Weather View 32 v70,2013-02-14 17:55:00,
2013-02-14 10:00:00,61.6,48.4,30.28,NE,49,3.0,11.0,62,0.00,,,0.00,0453,Weather View 32 v70,2013-02-14 18:00:00,
2013-02-14 10:05:00,61.7,47.6,30.28,East,94,3.0,11.0,60,0.00,,,0.00,0462,Weather View 32 v70,2013-02-14 18:05:00,
2013-02-14 10:10:00,61.2,46.7,30.28,North,4,9.0,14.0,59,0.00,,,0.00,0469,Weather View 32 v70,2013-02-14 18:10:00,
2013-02-14 10:15:00,61.8,47.7,30.28,NW,319,5.0,14.0,60,0.00,,,0.00,0478,Weather View 32 v70,2013-02-14 18:15:00,
2013-02-14 10:25:00,61.2,46.7,30.28,NE,49,6.0,14.0,59,0.00,,,0.00,0493,Weather View 32 v70,2013-02-14 18:25:00,
2013-02-14 10:30:00,61.8,47.7,30.28,ENE,72,3.0,14.0,60,0.00,,,0.00,0501,Weather View 32 v70,2013-02-14 18:30:00,
2013-02-14 10:35:00,61.9,47.4,30.27,ENE,72,4.0,14.0,59,0.00,,,0.00,0509,Weather View 32 v70,2013-02-14 18:35:00,
2013-02-14 10:40:00,62.1,47.6,30.27,East,94,4.0,14.0,59,0.00,,,0.00,0516,Weather View 32 v70,2013-02-14 18:40:00,
2013-02-14 10:45:00,61.6,47.1,30.27,NNE,27,5.0,14.0,59,0.00,,,0.00,0523,Weather View 32 v70,2013-02-14 18:45:00,
2013-02-14 10:55:00,61.8,47.3,30.27,NNW,342,4.0,14.0,59,0.00,,,0.00,0534,Weather View 32 v70,2013-02-14 18:55:00,
2013-02-14 11:00:00,61.6,46.6,30.27,NE,49,6.0,17.0,58,0.00,,,0.00,0540,Weather View 32 v70,2013-02-14 19:00:00,
2013-02-14 11:05:00,62.3,47.8,30.27,ENE,72,4.0,17.0,59,0.00,,,0.00,0544,Weather View 32 v70,2013-02-14 19:05:00,
2013-02-14 11:10:00,62.0,47.0,30.27,North,4,7.0,17.0,58,0.00,,,0.00,0548,Weather View 32 v70,2013-02-14 19:10:00,
2013-02-14 11:20:00,62.7,47.7,30.27,NE,49,6.0,17.0,58,0.00,,,0.00,0559,Weather View 32 v70,2013-02-14 19:20:00,
2013-02-14 11:25:00,62.5,47.5,30.27,NNE,27,6.0,17.0,58,0.00,,,0.00,0564,Weather View 32 v70,2013-02-14 19:25:00,
2013-02-14 11:30:00,63.0,47.5,30.27,NNW,342,9.0,17.0,57,0.00,,,0.00,0568,Weather View 32 v70,2013-02-14 19:30:00,
2013-02-14 11:35:00,63.2,47.7,30.26,NE,49,12.0,17.0,57,0.00,,,0.00,0571,Weather View 32 v70,2013-02-14 19:35:00,
2013-02-14 11:40:00,62.5,46.6,30.26,North,4,9.0,17.0,56,0.00,,,0.00,0575,Weather View 32 v70,2013-02-14 19:40:00,
2013-02-14 11:50:00,63.3,47.3,30.26,North,4,9.0,17.0,56,0.00,,,0.00,0582,Weather View 32 v70,2013-02-14 19:50:00,
2013-02-14 11:55:00,62.9,46.9,30.26,NE,49,7.0,17.0,56,0.00,,,0.00,0584,Weather View 32 v70,2013-02-14 19:55:00,
2013-02-14 12:00:00,63.2,47.2,30.26,NE,49,7.0,15.0,56,0.00,,,0.00,0585,Weather View 32 v70,2013-02-14 20:00:00,
2013-02-14 12:05:00,63.7,47.2,30.26,NE,49,7.0,15.0,55,0.00,,,0.00,0587,Weather View 32 v70,2013-02-14 20:05:00,
2013-02-14 12:10:00,64.4,48.3,30.25,ESE,117,0.0,15.0,56,0.00,,,0.00,0589,Weather View 32 v70,2013-02-14 20:10:00,
2013-02-14 12:20:00,65.1,49.0,30.25,SE,139,4.0,15.0,56,0.00,,,0.00,0591,Weather View 32 v70,2013-02-14 20:20:00,
2013-02-14 12:25:00,64.1,49.0,30.25,ESE,117,6.0,15.0,58,0.00,,,0.00,0589,Weather View 32 v70,2013-02-14 20:25:00,
2013-02-14 12:30:00,64.7,50.0,30.24,East,94,9.0,15.0,59,0.00,,,0.00,0589,Weather View 32 v70,2013-02-14 20:30:00,
2013-02-14 12:35:00,64.6,49.9,30.24,East,94,4.0,15.0,59,0.00,,,0.00,0589,Weather View 32 v70,2013-02-14 20:35:00,
2013-02-14 12:40:00,64.0,49.3,30.24,SE,139,4.0,13.0,59,0.00,,,0.00,0588,Weather View 32 v70,2013-02-14 20:40:00,
2013-02-14 12:50:00,64.6,49.9,30.24,SE,139,2.0,13.0,59,0.00,,,0.00,0586,Weather View 32 v70,2013-02-14 20:50:00,
2013-02-14 12:55:00,64.7,49.5,30.24,ESE,117,6.0,13.0,58,0.00,,,0.00,0585,Weather View 32 v70,2013-02-14 20:55:00,
2013-02-14 13:00:00,65.0,49.4,30.23,ENE,72,2.0,13.0,57,0.00,,,0.00,0584,Weather View 32 v70,2013-02-14 21:00:00,
2013-02-14 13:05:00,65.3,49.2,30.23,NE,49,3.0,12.0,56,0.00,,,0.00,0582,Weather View 32 v70,2013-02-14 21:05:00,
2013-02-14 13:10:00,64.8,49.2,30.22,ESE,117,6.0,12.0,57,0.00,,,0.00,0578,Weather View 32 v70,2013-02-14 21:10:00,
2013-02-14 13:15:00,65.5,49.8,30.22,ESE,117,3.0,11.0,57,0.00,,,0.00,0575,Weather View 32 v70,2013-02-14 21:15:00,
2013-02-14 13:25:00,65.8,50.1,30.22,East,94,5.0,11.0,57,0.00,,,0.00,0568,Weather View 32 v70,2013-02-14 21:25:00,
2013-02-14 13:30:00,65.8,50.1,30.21,SE,139,7.0,11.0,57,0.00,,,0.00,0563,Weather View 32 v70,2013-02-14 21:30:00,
2013-02-14 13:35:00,65.2,49.5,30.22,East,94,6.0,11.0,57,0.00,,,0.00,0558,Weather View 32 v70,2013-02-14 21:35:00,
2013-02-14 13:40:00,65.7,50.5,30.21,East,94,3.0,11.0,58,0.00,,,0.00,0552,Weather View 32 v70,2013-02-14 21:40:00,
2013-02-14 13:50:00,65.1,49.4,30.21,East,94,7.0,11.0,57,0.00,,,0.00,0540,Weather View 32 v70,2013-02-14 21:50:00,
2013-02-14 13:55:00,65.8,50.6,30.21,ENE,72,3.0,11.0,58,0.00,,,0.00,0535,Weather View 32 v70,2013-02-14 21:55:00,
2013-02-14 14:00:00,65.9,50.2,30.21,ENE,72,4.0,11.0,57,0.00,,,0.00,0530,Weather View 32 v70,2013-02-14 22:00:00,
2013-02-14 14:05:00,65.9,49.7,30.21,ESE,117,4.0,11.0,56,0.00,,,0.00,0523,Weather View 32 v70,2013-02-14 22:05:00,
2013-02-14 14:10:00,65.9,49.7,30.20,ESE,117,3.0,11.0,56,0.00,,,0.00,0516,Weather View 32 v70,2013-02-14 22:10:00,
2013-02-14 14:20:00,66.3,50.1,30.21,SE,139,4.0,11.0,56,0.00,,,0.00,0499,Weather View 32 v70,2013-02-14 22:20:00,
2013-02-14 14:25:00,66.2,50.5,30.21,ENE,72,2.0,12.0,57,0.00,,,0.00,0493,Weather View 32 v70,2013-02-14 22:25:00,
2013-02-14 14:30:00,66.2,50.0,30.20,East,94,6.0,12.0,56,0.00,,,0.00,0485,Weather View 32 v70,2013-02-14 22:30:00,
2013-02-14 14:35:00,66.0,49.8,30.20,East,94,4.0,12.0,56,0.00,,,0.00,0477,Weather View 32 v70,2013-02-14 22:35:00,
2013-02-14 14:40:00,65.9,49.7,30.20,NNE,27,7.0,12.0,56,0.00,,,0.00,0469,Weather View 32 v70,2013-02-14 22:40:00,
2013-02-14 14:50:00,66.2,50.5,30.20,NNE,27,2.0,12.0,57,0.00,,,0.00,0451,Weather View 32 v70,2013-02-14 22:50:00,
2013-02-14 14:55:00,66.1,49.9,30.20,ESE,117,1.0,12.0,56,0.00,,,0.00,0442,Weather View 32 v70,2013-02-14 22:55:00,
2013-02-14 15:00:00,66.3,50.1,30.20,NE,49,3.0,12.0,56,0.00,,,0.00,0434,Weather View 32 v70,2013-02-14 23:00:00,
2013-02-14 15:05:00,66.4,50.2,30.20,ENE,72,8.0,12.0,56,0.00,,,0.00,0424,Weather View 32 v70,2013-02-14 23:05:00,
2013-02-14 15:10:00,66.2,50.0,30.20,East,94,7.0,12.0,56,0.00,,,0.00,0414,Weather View 32 v70,2013-02-14 23:10:00,
2013-02-14 15:20:00,66.0,49.8,30.20,East,94,6.0,12.0,56,0.00,,,0.00,0395,Weather View 32 v70,2013-02-14 23:20:00,
2013-02-14 15:25:00,66.3,50.6,30.20,ESE,117,3.0,12.0,57,0.00,,,0.00,0385,Weather View 32 v70,2013-02-14 23:25:00,
2013-02-14 15:30:00,66.8,50.6,30.20,ENE,72,3.0,12.0,56,0.00,,,0.00,0375,Weather View 32 v70,2013-02-14 23:30:00,
2013-02-14 15:35:00,66.5,50.8,30.20,ESE,117,4.0,12.0,57,0.00,,,0.00,0365,Weather View 32 v70,2013-02-14 23:35:00,
2013-02-14 15:45:00,66.3,50.1,30.20,ENE,72,4.0,12.0,56,0.00,,,0.00,0343,Weather View 32 v70,2013-02-14 23:45:00,
2013-02-14 15:50:00,66.5,50.8,30.20,NE,49,5.0,12.0,57,0.00,,,0.00,0331,Weather View 32 v70,2013-02-14 23:50:00,
2013-02-14 15:55:00,66.5,50.8,30.20,East,94,2.0,12.0,57,0.00,,,0.00,0319,Weather View 32 v70,2013-02-14 23:55:00,
2013-02-14 16:00:00,66.0,50.3,30.19,East,94,4.0,12.0,57,0.00,,,0.00,0309,Weather View 32 v70,2013-02-15 00:00:00,
2013-02-14 16:10:00,65.9,50.7,30.19,ENE,72,4.0,12.0,58,0.00,,,0.00,0287,Weather View 32 v70,2013-02-15 00:10:00,
2013-02-14 16:15:00,65.9,51.1,30.19,ESE,117,4.0,11.0,59,0.00,,,0.00,0274,Weather View 32 v70,2013-02-15 00:15:00,
2013-02-14 16:20:00,66.0,51.2,30.19,East,94,3.0,11.0,59,0.00,,,0.00,0261,Weather View 32 v70,2013-02-15 00:20:00,
2013-02-14 16:25:00,66.0,51.2,30.19,ESE,117,6.0,11.0,59,0.00,,,0.00,0248,Weather View 32 v70,2013-02-15 00:25:00,
2013-02-14 16:30:00,65.9,51.1,30.19,SSE,162,1.0,11.0,59,0.00,,,0.00,0035,Weather View 32 v70,2013-02-15 00:30:00,
2013-02-14 16:40:00,64.7,50.9,30.19,North,4,1.0,11.0,61,0.00,,,0.00,0026,Weather View 32 v70,2013-02-15 00:40:00,
2013-02-14 16:45:00,63.4,50.6,30.19,SSW,207,3.0,11.0,63,0.00,,,0.00,0025,Weather View 32 v70,2013-02-15 00:45:00,
2013-02-14 16:50:00,62.9,50.9,30.19,SSE,162,2.0,11.0,65,0.00,,,0.00,0024,Weather View 32 v70,2013-02-15 00:50:00,
2013-02-14 16:55:00,62.5,51.0,30.19,South,184,1.0,11.0,66,0.00,,,0.00,0023,Weather View 32 v70,2013-02-15 00:55:00,
2013-02-14 17:00:00,62.0,50.5,30.19,SSW,207,3.0,9.0,66,0.00,,,0.00,0022,Weather View 32 v70,2013-02-15 01:00:00,
2013-02-14 17:10:00,61.4,51.1,30.19,SW,229,3.0,9.0,69,0.00,,,0.00,0019,Weather View 32 v70,2013-02-15 01:10:00,
2013-02-14 17:15:00,60.8,50.9,30.19,SSW,207,3.0,7.0,70,0.00,,,0.00,0018,Weather View 32 v70,2013-02-15 01:15:00,
2013-02-14 17:20:00,60.2,50.7,30.19,SSW,207,3.0,7.0,71,0.00,,,0.00,0017,Weather View 32 v70,2013-02-15 01:20:00,
2013-02-14 17:25:00,60.1,51.0,30.19,SE,139,1.0,7.0,72,0.00,,,0.00,0015,Weather View 32 v70,2013-02-15 01:25:00,
2013-02-14 17:30:00,60.4,51.3,30.19,SSW,207,3.0,6.0,72,0.00,,,0.00,0013,Weather View 32 v70,2013-02-15 01:30:00,
2013-02-14 17:40:00,59.4,51.1,30.19,SSW,207,1.0,6.0,74,0.00,,,0.00,0009,Weather View 32 v70,2013-02-15 01:40:00,
2013-02-14 17:45:00,58.8,50.9,30.20,SW,229,3.0,6.0,75,0.00,,,0.00,0007,Weather View 32 v70,2013-02-15 01:45:00,
2013-02-14 17:50:00,58.2,50.7,30.20,WSW,252,1.0,6.0,76,0.00,,,0.00,0005,Weather View 32 v70,2013-02-15 01:50:00,
2013-02-14 17:55:00,57.6,50.4,30.20,SW,229,1.0,6.0,77,0.00,,,0.00,0003,Weather View 32 v70,2013-02-15 01:55:00,
2013-02-14 18:00:00,57.0,50.5,30.20,NNW,342,0.0,6.0,79,0.00,,,0.00,0002,Weather View 32 v70,2013-02-15 02:00:00,
2013-02-14 18:10:00,56.7,50.6,30.20,SSW,207,0.0,6.0,80,0.00,,,0.00,0002,Weather View 32 v70,2013-02-15 02:10:00,
2013-02-14 18:15:00,56.4,50.6,30.20,SSW,207,0.0,6.0,81,0.00,,,0.00,0001,Weather View 32 v70,2013-02-15 02:15:00,
2013-02-14 18:20:00,56.0,50.2,30.20,South,184,0.0,5.0,81,0.00,,,0.00,0001,Weather View 32 v70,2013-02-15 02:20:00,
2013-02-14 18:25:00,55.5,50.1,30.20,SSE,162,0.0,4.0,82,0.00,,,0.00,0001,Weather View 32 v70,2013-02-15 02:25:00,
2013-02-14 18:30:00,55.3,50.2,30.20,SW,229,1.0,4.0,83,0.00,,,0.00,0001,Weather View 32 v70,2013-02-15 02:30:00,
2013-02-14 18:35:00,54.9,50.1,30.20,West,274,1.0,3.0,84,0.00,,,0.00,0001,Weather View 32 v70,2013-02-15 02:35:00,
2013-02-14 18:45:00,55.1,50.7,30.21,SW,229,3.0,3.0,85,0.00,,,0.00,0001,Weather View 32 v70,2013-02-15 02:45:00,
2013-02-14 18:50:00,55.7,50.9,30.21,SW,229,3.0,3.0,84,0.00,,,0.00,0001,Weather View 32 v70,2013-02-15 02:50:00,
2013-02-14 18:55:00,55.7,50.6,30.21,SW,229,3.0,4.0,83,0.00,,,0.00,0001,Weather View 32 v70,2013-02-15 02:55:00,
2013-02-14 19:00:00,55.7,50.6,30.21,WSW,252,1.0,4.0,83,0.00,,,0.00,0001,Weather View 32 v70,2013-02-15 03:00:00,
2013-02-14 19:10:00,55.5,50.4,30.21,North,4,1.0,4.0,83,0.00,,,0.00,0002,Weather View 32 v70,2013-02-15 03:10:00,
2013-02-14 19:15:00,55.3,50.5,30.21,SE,139,1.0,4.0,84,0.00,,,0.00,0001,Weather View 32 v70,2013-02-15 03:15:00,
2013-02-14 19:20:00,55.2,50.4,30.21,WSW,252,1.0,4.0,84,0.00,,,0.00,0002,Weather View 32 v70,2013-02-15 03:20:00,
2013-02-14 19:25:00,55.1,50.3,30.21,South,184,0.0,4.0,84,0.00,,,0.00,0001,Weather View 32 v70,2013-02-15 03:25:00,
2013-02-14 19:30:00,54.8,50.4,30.21,SE,139,0.0,4.0,85,0.00,,,0.00,0002,Weather View 32 v70,2013-02-15 03:30:00,
2013-02-14 19:35:00,54.4,50.0,30.21,ESE,117,0.0,4.0,85,0.00,,,0.00,0001,Weather View 32 v70,2013-02-15 03:35:00,
2013-02-14 19:45:00,53.8,50.0,30.22,ENE,72,0.0,4.0,87,0.00,,,0.00,0002,Weather View 32 v70,2013-02-15 03:45:00,
2013-02-14 19:50:00,53.5,50.0,30.22,NNE,27,0.0,4.0,88,0.00,,,0.00,0002,Weather View 32 v70,2013-02-15 03:50:00,
2013-02-14 19:55:00,53.2,50.0,30.22,WSW,252,0.0,4.0,89,0.00,,,0.00,0001,Weather View 32 v70,2013-02-15 03:55:00,
2013-02-14 20:00:00,52.9,50.0,30.22,SSW,207,0.0,3.0,90,0.00,,,0.00,0001,Weather View 32 v70,2013-02-15 04:00:00,
2013-02-14 20:05:00,52.6,49.7,30.21,WSW,252,0.0,3.0,90,0.00,,,0.00,0001,Weather View 32 v70,2013-02-15 04:05:00,
2013-02-14 20:10:00,52.2,49.6,30.22,SSW,207,0.0,3.0,91,0.00,,,0.00,0001,Weather View 32 v70,2013-02-15 04:10:00,
2013-02-14 20:20:00,51.6,49.6,30.22,WNW,297,0.0,2.0,93,0.00,,,0.00,0001,Weather View 32 v70,2013-02-15 04:20:00,
2013-02-14 20:25:00,51.5,49.8,30.22,SSW,207,0.0,2.0,94,0.00,,,0.00,0001,Weather View 32 v70,2013-02-15 04:25:00,
2013-02-14 20:30:00,51.4,49.7,30.22,SSW,207,0.0,2.0,94,0.00,,,0.00,0001,Weather View 32 v70,2013-02-15 04:30:00,
2013-02-14 20:35:00,51.5,50.1,30.22,WSW,252,1.0,2.0,95,0.00,,,0.00,0001,Weather View 32 v70,2013-02-15 04:35:00,
2013-02-14 20:40:00,51.3,49.9,30.22,SSW,207,1.0,2.0,95,0.00,,,0.00,0002,Weather View 32 v70,2013-02-15 04:40:00,
2013-02-14 20:45:00,51.1,49.7,30.22,West,274,0.0,2.0,95,0.00,,,0.00,0002,Weather View 32 v70,2013-02-15 04:45:00,
2013-02-14 20:55:00,51.0,49.9,30.22,WSW,252,1.0,3.0,96,0.00,,,0.00,0001,Weather View 32 v70,2013-02-15 04:55:00,
2013-02-14 21:00:00,51.0,49.9,30.22,WSW,252,0.0,3.0,96,0.00,,,0.00,0002,Weather View 32 v70,2013-02-15 05:00:00,
2013-02-14 21:05:00,51.1,50.0,30.23,WSW,252,1.0,3.0,96,0.00,,,0.00,0001,Weather View 32 v70,2013-02-15 05:05:00,
2013-02-14 21:10:00,51.1,49.7,30.23,WSW,252,2.0,3.0,95,0.00,,,0.00,0002,Weather View 32 v70,2013-02-15 05:10:00,
2013-02-14 21:15:00,51.3,49.9,30.23,WSW,252,1.0,3.0,95,0.00,,,0.00,0001,Weather View 32 v70,2013-02-15 05:15:00,
2013-02-14 21:20:00,50.9,49.5,30.23,West,274,1.0,3.0,95,0.00,,,0.00,0001,Weather View 32 v70,2013-02-15 05:20:00,
2013-02-14 21:30:00,50.7,49.3,30.23,SSW,207,0.0,3.0,95,0.00,,,0.00,0001,Weather View 32 v70,2013-02-15 05:30:00,
2013-02-14 21:35:00,50.5,49.1,30.23,SW,229,1.0,3.0,95,0.00,,,0.00,0001,Weather View 32 v70,2013-02-15 05:35:00,
2013-02-14 21:40:00,50.3,48.9,30.23,WSW,252,1.0,3.0,95,0.00,,,0.00,0002,Weather View 32 v70,2013-02-15 05:40:00,
2013-02-14 21:45:00,50.2,49.1,30.23,SSW,207,0.0,3.0,96,0.00,,,0.00,0001,Weather View 32 v70,2013-02-15 05:45:00,
2013-02-14 21:50:00,49.9,48.8,30.24,SW,229,0.0,3.0,96,0.00,,,0.00,0001,Weather View 32 v70,2013-02-15 05:50:00,
2013-02-14 21:55:00,49.6,48.5,30.24,West,274,1.0,3.0,96,0.00,,,0.00,0002,Weather View 32 v70,2013-02-15 05:55:00,
2013-02-14 22:05:00,49.1,48.3,30.23,WSW,252,1.0,3.0,97,0.00,,,0.00,0002,Weather View 32 v70,2013-02-15 06:05:00,
2013-02-14 22:10:00,48.8,48.3,30.24,SSW,207,0.0,2.0,98,0.00,,,0.00,0001,Weather View 32 v70,2013-02-15 06:10:00,
2013-02-14 22:15:00,48.8,48.5,30.24,South,184,0.0,2.0,99,0.00,,,0.00,0002,Weather View 32 v70,2013-02-15 06:15:00,
2013-02-14 22:20:00,48.8,48.5,30.24,SSW,207,0.0,2.0,99,0.00,,,0.00,0001,Weather View 32 v70,2013-02-15 06:20:00,
2013-02-14 22:25:00,48.8,48.5,30.24,SW,229,0.0,2.0,99,0.00,,,0.00,0001,Weather View 32 v70,2013-02-15 06:25:00,
2013-02-14 22:33:00,49.1,48.8,30.24,South,184,0.0,2.0,99,0.00,,,0.00,0002,Weather View 32 v70,2013-02-15 06:33:00,
2013-02-14 22:40:00,49.4,49.1,30.24,SSW,207,2.0,3.0,99,0.00,,,0.00,0001,Weather View 32 v70,2013-02-15 06:40:00,
2013-02-14 22:45:00,49.2,48.9,30.24,SSW,207,1.0,3.0,99,0.00,,,0.00,0001,Weather View 32 v70,2013-02-15 06:45:00,
2013-02-14 22:50:00,49.1,48.6,30.24,SW,229,0.0,3.0,98,0.00,,,0.00,0001,Weather View 32 v70,2013-02-15 06:50:00,
2013-02-14 22:55:00,48.8,48.3,30.25,SW,229,0.0,3.0,98,0.00,,,0.00,0001,Weather View 32 v70,2013-02-15 06:55:00,
2013-02-14 23:05:00,48.1,47.8,30.25,South,184,0.0,3.0,99,0.00,,,0.00,0002,Weather View 32 v70,2013-02-15 07:05:00,
2013-02-14 23:10:00,47.9,47.9,30.25,SSE,162,0.0,3.0,100,0.00,,,0.00,0001,Weather View 32 v70,2013-02-15 07:10:00,
2013-02-14 23:15:00,47.6,47.6,30.25,SSE,162,0.0,3.0,100,0.00,,,0.00,0002,Weather View 32 v70,2013-02-15 07:15:00,
2013-02-14 23:20:00,47.5,47.5,30.25,SSW,207,0.0,3.0,100,0.00,,,0.00,0001,Weather View 32 v70,2013-02-15 07:20:00,
2013-02-14 23:25:00,47.4,47.4,30.25,NW,319,0.0,3.0,100,0.00,,,0.00,0001,Weather View 32 v70,2013-02-15 07:25:00,
2013-02-14 23:30:00,47.3,47.3,30.25,East,94,0.0,3.0,100,0.00,,,0.00,0001,Weather View 32 v70,2013-02-15 07:30:00,
2013-02-14 23:40:00,46.8,46.8,30.25,South,184,0.0,3.0,100,0.00,,,0.00,0001,Weather View 32 v70,2013-02-15 07:40:00,
2013-02-14 23:45:00,46.6,46.6,30.25,SW,229,0.0,1.0,100,0.00,,,0.00,0001,Weather View 32 v70,2013-02-15 07:45:00,
2013-02-14 23:50:00,46.1,46.1,30.25,WNW,297,0.0,1.0,100,0.00,,,0.00,0001,Weather View 32 v70,2013-02-15 07:50:00,
2013-02-14 23:55:00,46.4,46.4,30.25,NNW,342,0.0,1.0,100,0.00,,,0.00,0001,Weather View 32 v70,2013-02-15 07:55:00,